Regional Weather Roundup
Issued by NWS

Home | Current Version | Previous Version | Text Only | Print | Product List | Glossary Off
Versions: 1 2 3 4 5 6 7 8 9 10 11 12 13 14 15 16 17 18 19 20 21 22 23 24 25 26 27 28 29 30 31 32 33 34 35 36 37 38 39 40 41 42 43 44 45 46 47 48 49 50

000
ASUS43 KLSX 232159
RWRMO

WEATHER SUMMARY FOR MISSOURI
NATIONAL WEATHER SERVICE SPRINGFIELD MO
500 PM CDT TUE SEP 23 2014

NOTE: "FAIR" INDICATES FEW OR NO CLOUDS BELOW 12,000 FEET WITH NO
       SIGNIFICANT WEATHER AND/OR OBSTRUCTIONS TO VISIBILITY.
       CURRENT SKY AND/OR WEATHER CONDITIONS ARE NOT AVAILABLE FOR
       CHILLICOTHE AND FARMINGTON.

MOZ001>031-035>038-043-044-053-054-232300-
...NORTHERN AND WESTERN MISSOURI...

CITY           SKY/WX    TMP DP  RH WIND       PRES   REMARKS
KANSAS CTY INT PTSUNNY   71  53  52 S13       30.15F
KANSAS C DTWN  MOSUNNY   74  53  48 SE12      30.14F
LEE`S SUMMIT   MOSUNNY   72  49  44 SE10      30.16F
ST JOSEPH      CLOUDY    70  55  59 S9        30.15S
KIRKSVILLE     PTSUNNY   70  50  49 SE13      30.21F

$$
MOZ066>068-077>081-088>096-101>105-232300-
...SOUTHWEST MISSOURI...

CITY           SKY/WX    TMP DP  RH WIND       PRES   REMARKS
SPRINGFIELD    MOSUNNY   73  45  36 SE8       30.18F
JOPLIN         SUNNY     74  47  38 SE8       30.16F

$$
MOZ032>034-039>042-045>050-055>058-069>072-232300-
...CENTRAL MISSOURI...

CITY           SKY/WX    TMP DP  RH WIND       PRES   REMARKS
COLUMBIA       MOSUNNY   74  48  39 SE10      30.21S
JEFFERSON CITY MOSUNNY   77  43  29 SE8       30.20S
ROLLA          MOSUNNY   73  45  36 E7        30.20F
SEDALIA        PTSUNNY   73  46  38 SE12      30.19F
OSAGE BEACH    SUNNY     75  45  33 SE6       30.20S

$$
MOZ051-052-059>065-232300-
...EAST CENTRAL MISSOURI...

CITY           SKY/WX    TMP DP  RH WIND       PRES   REMARKS
ST LOUIS INTL  PTSUNNY   74  48  39 SE6       30.23F
SPIRIT OF STL  PTSUNNY   71  55  56 CALM      30.22S
ST CHARLES     MOSUNNY   73  48  41 SE8       30.22F

$$
MOZ072>076-082>087-097>100-106>115-232300-
...SOUTH CENTRAL AND SOUTHEAST MISSOURI...

CITY           SKY/WX    TMP DP  RH WIND       PRES   REMARKS
CAPE GIRARDEAU SUNNY     75  47  36 E9        30.21F
FARMINGTON     SUNNY     73  46  38 E7        30.24F
POPLAR BLUFF   SUNNY     77  43  29 NE8       30.19F
WEST PLAINS    MOSUNNY   73  41  31 E7        30.22F

$$



USA.gov is the U.S. government's official web portal to all federal, state and local government web resources and services.